Back to catalog

STARLINK-6051

AliveCommunicationsVLEO
NORAD 56463·PAYLOAD·🇺🇸 United States

Launched May 10, 2023 from Vandenberg Space Force Base

Loading…

Next Passes (next 24 hours)

TLE

FreshSource: CelesTrak SupGP

Epoch: Sep 15, 2026, 02:11 UTC

1 56463C 23064R   26258.09145833 -.00009462  00000+0 -79316-3 0  2584
2 56463  70.0025  26.9942 0003129 269.2942 113.1459 14.98323836    13

Track STARLINK-6051 in real time with AllMySat

Download on the App Store